Wind_Speed
43 45 44 43 41 40 38 39 39 34 33 34 33 33 33 32 32 32 33 34 35 35 36 37 38 39 40 41 42 43 43 44 44 45 46 47 47 48 49 49 49 50 50 51 51 52 53 54 55 56 56 57 58 59 60 62 63 64 64 65 66 67 67 67 68 69 70 70 70 72 71 71 72 73 74 74 75 75 75 75 76 78 79 80 80 81 81 82
41 46 47 46 45 44 42 41 41 37 35 35 35 34 34 34 33 33 33 33 33 34 35 36 37 39 39 40 42 44 45 45 46 46 48 49 49 50 50 50 51 51 52 52 52 53 55 56 57 57 58 59 60 61 61 63 64 64 65 66 68 68 68 69 69 70 71 71 71 73 73 73 74 75 75 76 76 77 76 77 79 80 81 82 83 83 84 84
37 45 49 49 47 47 45 42 41 39 37 37 37 36 36 36 36 35 34 34 33 34 35 35 36 37 38 39 40 42 44 45 46 47 48 49 51 52 52 52 52 53 53 54 55 56 57 58 59 60 61 62 63 63 64 65 66 66 67 68 69 70 71 71 71 72 73 73 73 74 75 75 75 76 77 77 78 79 79 80 82 82 83 85 85 86 87 87
34 40 47 50 49 48 47 45 42 41 39 39 38 38 39 39 38 38 37 37 36 36 37 37 37 38 39 39 40 41 43 44 45 47 48 49 50 51 53 53 54 55 55 56 56 57 58 59 60 62 63 64 65 65 66 68 68 68 69 70 71 72 72 72 74 74 74 75 76 76 77 77 78 78 79 80 81 81 82 84 84 85 86 87 87 87 87 88
33 36 42 48 50 49 48 47 45 43 42 41 41 40 40 40 41 41 41 41 40 40 40 40 40 41 42 43 44 45 45 45 46 47 48 49 50 51 52 53 54 55 56 57 58 59 59 60 61 62 63 64 65 66 67 69 69 69 71 72 72 74 74 73 75 76 76 77 78 79 80 80 81 81 81 82 83 84 85 86 86 87 87 88 88 87 87 87
31 34 37 42 47 50 49 48 48 47 45 44 43 42 41 41 42 42 43 43 43 43 44 44 45 46 47 48 49 50 50 50 50 50 50 51 52 53 54 54 56 57 58 59 60 61 61 62 63 63 64 64 66 67 67 69 69 69 71 72 73 74 74 74 75 76 77 78 79 80 80 81 81 82 83 83 84 85 85 86 87 87 87 88 89 89 89 89
30 32 34 37 42 46 48 48 48 48 47 46 44 44 43 42 42 42 43 43 43 44 44 45 46 47 49 51 52 53 54 55 55 55 55 56 56 56 57 57 58 59 60 62 63 64 64 65 66 66 67 67 68 69 69 70 70 70 71 72 74 74 74 75 76 76 77 78 79 79 80 80 81 81 82 83 84 86 86 87 88 88 89 90 91 91 92 93
28 30 32 34 37 41 43 45 46 47 48 47 46 45 44 44 43 43 44 44 44 44 45 45 46 48 49 50 52 53 54 55 56 57 58 59 59 60 60 61 62 63 64 64 65 66 67 68 68 69 70 70 71 71 72 72 72 72 73 73 75 75 75 76 77 78 79 80 80 81 81 82 83 83 83 85 87 88 89 89 90 91 91 92 93 95 96 97
26 28 29 31 34 37 39 42 43 44 45 46 46 46 46 45 45 45 45 45 45 45 45 45 46 48 48 49 50 51 53 54 54 56 57 59 60 61 62 63 63 64 65 65 66 67 68 68 69 70 71 72 73 73 74 74 74 75 76 76 76 78 78 79 80 81 82 83 84 84 85 85 86 86 86 88 90 91 92 93 94 95 96 97 98 99 101 102
25 26 27 28 30 33 36 40 43 44 43 43 44 45 45 46 46 46 46 46 45 45 45 45 45 46 47 48 49 50 52 53 53 54 55 56 58 59 60 61 62 63 63 64 65 66 68 69 70 71 72 73 74 75 76 77 77 77 79 79 80 81 82 83 84 85 86 87 88 89 89 90 90 91 91 93 95 96 97 99 100 101 102 103 104 105 106 107
24 24 25 26 28 30 33 36 40 44 45 44 42 43 44 45 45 46 46 47 47 48 48 48 48 49 50 51 51 52 53 54 54 55 56 57 58 60 61 63 63 64 65 67 68 69 71 72 74 75 76 77 78 80 80 81 82 83 84 84 85 86 87 88 89 90 91 92 93 94 94 95 96 96 97 99 101 101 103 104 105 106 107 107 108 109 110 111
22 23 23 24 25 27 29 32 35 40 44 46 45 43 43 43 45 45 46 47 48 49 50 51 52 54 55 56 56 57 58 59 59 60 61 62 64 65 66 68 69 70 71 73 74 75 77 78 80 81 82 83 84 85 86 87 88 89 90 90 91 92 93 93 95 96 96 97 98 100 100 100 100 101 103 103 104 105 106 107 107 108 109 109 110 110 111 112
21 21 22 22 23 24 26 28 31 34 38 43 45 46 45 45 46 46 47 47 48 49 50 51 52 54 56 58 59 61 62 63 64 65 66 68 69 70 72 73 74 76 77 78 79 81 82 83 84 86 87 88 89 90 91 92 93 94 95 96 96 97 98 98 99 101 101 102 103 104 104 103 103 104 106 106 106 107 107 108 108 108 109 109 110 110 111 111
20 20 20 21 22 23 24 26 28 30 33 36 40 43 46 47 48 49 49 49 50 50 51 51 52 53 54 56 57 59 61 62 64 65 66 68 69 71 72 73 75 76 77 79 80 82 83 84 86 87 89 90 91 92 93 94 95 96 97 98 98 99 100 100 101 103 103 104 104 105 106 105 103 104 106 106 106 107 107 107 107 108 108 108 109 109 109 109
18 19 20 21 21 22 23 25 26 28 30 32 35 38 41 44 47 49 50 52 52 53 54 54 54 55 55 56 57 59 60 61 62 63 64 66 67 69 70 71 73 74 76 77 79 80 82 83 85 86 88 90 91 92 93 94 95 95 96 97 97 98 98 97 99 100 101 102 102 103 104 102 101 101 102 103 104 104 104 104 104 105 105 105 105 105 105 105
18 18 19 20 21 22 23 24 25 27 28 30 32 34 37 40 42 45 47 49 51 52 53 54 55 56 57 57 58 59 60 60 61 62 63 64 65 66 68 68 70 71 73 75 76 78 79 81 83 85 86 88 89 90 91 91 91 92 92 92 92 93 94 93 93 95 96 96 97 98 99 98 97 98 99 99 99 99 100 100 101 101 101 101 101 101 101 101
18 19 20 20 21 22 23 24 24 26 27 29 30 32 34 36 38 40 42 43 45 46 48 49 51 52 52 53 54 54 54 55 56 57 58 59 60 61 63 65 66 68 70 72 74 75 77 79 81 82 84 85 87 87 88 88 88 88 88 89 89 88 89 89 89 90 91 92 93 94 95 95 95 96 96 96 96 97 97 98 98 99 99 99 99 98 98 98
18 19 20 21 21 22 23 23 24 25 26 27 28 29 31 32 34 35 36 37 39 40 42 43 43 44 44 45 46 47 48 50 51 52 54 56 57 59 61 64 66 68 70 72 74 75 77 79 80 82 82 83 84 85 85 85 86 85 84 85 86 85 86 87 87 88 89 90 91 92 93 93 94 95 96 96 96 96 96 97 97 98 98 98 98 97 97 97
18 19 20 20 21 22 23 23 24 24 25 25 26 27 27 28 30 31 32 33 34 35 35 36 37 38 39 40 42 44 46 48 50 52 54 56 58 60 63 65 67 68 70 72 74 75 76 78 80 80 80 80 81 82 82 82 83 83 82 82 82 83 83 83 84 85 86 88 89 91 92 92 94 95 95 96 96 96 97 97 97 97 98 98 98 97 97 97
18 18 19 19 20 21 22 22 22 22 22 23 23 24 24 25 26 27 28 29 29 30 31 33 34 35 37 40 42 44 47 49 51 53 56 58 60 62 64 66 67 69 70 71 73 74 75 76 77 77 77 77 78 78 79 79 78 78 77 77 77 77 77 76 77 79 81 82 84 86 88 89 90 92 94 95 96 96 97 97 98 98 98 98 98 97 97 97
17 17 17 18 19 19 20 20 20 20 20 20 21 21 21 22 22 24 25 26 28 29 31 33 35 37 39 42 44 47 49 52 54 56 58 60 61 63 65 66 67 68 70 70 71 72 73 74 74 74 74 73 73 72 72 72 71 70 69 69 69 69 70 70 70 72 74 76 77 79 81 82 84 87 89 90 92 93 95 95 96 96 96 97 97 97 96 96
16 16 16 16 17 17 17 16 16 16 16 17 17 17 18 19 21 22 24 26 28 31 33 35 37 39 42 45 47 49 52 54 56 58 60 61 62 63 64 65 66 67 68 69 70 70 70 70 69 67 66 65 64 64 64 63 63 63 63 63 63 63 64 65 65 67 70 71 72 74 75 77 79 80 82 85 87 89 90 91 91 92 93 94 94 94 94 95
14 14 14 15 14 14 13 12 11 11 12 13 14 15 17 19 21 23 25 28 30 32 34 37 39 42 45 47 50 52 54 56 58 59 61 62 63 64 64 65 65 65 65 65 64 63 62 60 59 58 57 57 56 56 57 57 57 57 58 58 58 58 60 61 61 63 66 67 68 70 71 73 74 76 77 80 82 84 85 85 87 88 89 90 91 91 92 94
12 12 12 11 10 9 8 8 8 9 11 12 14 17 19 21 23 25 27 30 32 35 37 40 42 45 47 50 52 54 56 58 59 60 61 62 63 63 62 61 60 59 57 56 55 54 53 52 51 51 51 51 51 51 52 52 52 52 53 54 54 54 55 57 57 59 61 63 64 67 68 69 69 72 74 77 79 79 81 82 83 84 85 87 88 90 91 93
10 9 8 7 6 5 5 7 8 10 12 14 16 18 20 23 25 28 30 33 35 38 40 43 46 48 51 53 55 56 58 59 60 60 60 59 58 56 54 52 51 50 49 49 48 48 48 48 48 48 48 48 48 49 50 50 50 50 51 51 52 52 52 54 55 56 57 59 60 63 66 65 64 67 71 74 75 76 78 79 80 81 83 85 87 89 91 92
7 6 5 4 4 5 6 8 10 12 14 16 18 20 23 26 28 31 33 36 38 41 44 47 49 52 54 55 57 57 58 58 58 56 54 51 49 47 47 47 46 46 46 46 46 46 47 47 47 47 47 47 48 48 48 49 49 49 49 49 50 50 51 52 53 54 55 56 57 59 63 64 62 64 68 70 72 74 75 76 78 80 82 84 86 87 89 90
5 4 4 4 5 7 8 10 12 15 16 19 21 24 26 29 32 34 37 39 43 46 48 51 53 54 55 55 56 56 55 54 51 48 46 44 44 45 45 45 46 46 46 46 46 46 46 45 45 45 45 45 45 45 46 46 46 46 46 47 47 48 49 49 51 52 53 55 55 55 59 63 61 60 64 67 69 70 71 73 75 77 79 81 83 84 86 87
4 4 4 5 7 9 11 13 15 17 19 22 25 27 30 33 36 38 41 44 47 50 51 53 54 55 55 56 55 52 49 46 43 43 43 43 44 45 45 46 45 45 45 44 43 43 42 42 42 42 42 42 42 43 43 44 44 45 45 46 46 47 48 49 50 52 53 55 55 55 58 63 62 60 62 66 67 68 70 72 74 76 78 79 81 83 84 86
4 4 6 8 10 12 14 16 18 21 23 26 29 32 35 38 40 43 45 47 50 52 53 53 54 54 55 53 49 45 43 42 42 43 43 44 44 44 43 43 43 42 42 41 41 40 40 40 40 41 41 42 42 43 44 44 45 46 47 48 49 50 51 52 53 54 56 58 58 59 61 65 66 64 64 68 69 70 72 74 76 78 79 81 83 85 86 88
5 7 9 11 13 15 18 20 22 25 27 30 33 36 39 42 44 47 48 50 52 53 54 54 54 53 49 45 42 41 42 43 43 43 44 43 42 41 41 40 40 40 40 39 39 39 39 39 40 41 42 42 44 45 46 47 47 48 49 50 51 53 54 55 57 58 60 61 61 63 65 68 70 68 67 71 72 74 76 78 79 81 82 84 86 87 89 91
8 10 12 14 17 19 21 24 26 28 31 34 36 40 43 45 47 49 51 52 53 53 54 54 51 47 42 40 40 41 41 41 41 40 40 39 39 38 38 38 38 38 38 38 38 38 38 39 40 42 43 44 46 47 48 49 50 51 52 53 54 55 56 58 60 61 63 64 63 66 68 70 72 71 71 74 75 77 79 80 82 84 85 87 89 90 92 93
11 13 15 17 20 22 25 27 29 31 34 37 40 43 46 48 50 51 53 53 53 54 53 49 44 40 39 40 40 40 39 39 38 37 36 36 36 36 36 37 37 38 39 40 41 41 41 41 42 44 45 47 48 49 50 51 53 54 55 56 57 58 59 60 62 63 65 66 66 69 71 72 74 74 74 76 78 80 82 83 85 86 87 89 91 92 94 95
13 15 18 20 23 25 27 30 32 35 37 40 43 46 48 50 52 52 53 54 54 51 46 41 39 39 39 39 38 37 36 35 35 34 35 35 35 36 36 37 38 39 40 42 44 45 45 45 45 46 48 50 51 51 53 54 55 57 58 59 60 61 62 62 64 65 67 68 68 70 73 74 75 76 77 79 81 83 84 85 87 88 90 91 93 94 96 98
16 18 21 23 26 28 30 32 35 38 40 43 46 48 50 51 52 53 54 53 49 44 40 39 39 38 37 36 35 34 33 33 33 33 33 34 35 35 37 38 40 41 42 43 45 47 48 48 48 49 50 52 54 54 55 56 57 58 60 61 62 64 64 65 66 67 69 71 71 72 75 77 77 78 80 82 84 85 86 88 89 91 92 94 95 97 98 100
19 21 24 26 28 30 32 35 38 41 43 45 48 49 51 52 53 53 51 46 41 38 38 38 37 36 35 33 32 32 32 32 32 33 33 34 35 37 38 40 41 42 44 45 47 49 51 51 51 52 53 55 56 57 58 59 59 60 61 63 64 66 67 68 69 70 72 74 74 74 77 79 80 81 83 85 86 87 89 90 91 93 94 96 98 99 101 102
22 24 26 28 29 32 34 38 41 43 45 47 49 50 51 52 53 49 44 39 38 38 37 35 34 32 31 31 31 31 31 32 32 33 34 35 37 38 39 41 43 45 46 48 49 50 52 54 54 54 55 57 57 58 59 61 62 62 63 65 66 68 70 71 72 73 75 77 78 77 79 81 82 84 86 88 89 89 91 93 94 96 97 99 100 102 103 105
24 26 28 29 32 34 37 40 43 44 46 48 50 51 52 52 48 42 39 38 37 36 34 33 31 30 29 29 30 30 31 32 33 33 35 36 38 39 41 43 45 47 48 49 51 52 53 54 56 56 56 57 59 59 61 63 65 66 67 69 70 72 73 75 76 77 78 79 81 81 82 83 85 87 89 90 91 93 94 96 97 99 100 101 102 104 105 106
26 28 29 32 35 37 40 42 44 46 48 49 50 51 51 46 41 38 38 37 35 34 32 30 30 29 29 30 30 31 32 33 34 36 37 38 39 42 43 45 47 48 50 51 52 53 53 54 56 57 58 59 62 63 63 65 68 70 71 73 74 75 77 78 79 80 81 82 84 84 84 85 87 90 92 92 93 95 96 98 99 100 101 102 103 103 104 105
27 29 32 34 37 39 41 43 45 47 48 49 50 49 45 40 37 37 37 35 33 32 30 29 29 29 29 30 31 32 33 35 36 37 38 40 42 44 46 47 49 50 51 52 52 53 55 55 56 58 60 62 64 66 68 68 70 72 74 76 77 78 80 81 81 83 83 84 84 85 86 85 87 90 92 92 93 95 95 97 97 98 99 99 100 100 101 102
30 32 34 37 39 41 42 45 46 47 48 49 48 43 39 37 37 36 34 32 30 29 28 28 29 29 30 31 32 33 35 36 37 38 40 42 44 46 48 49 50 51 51 52 53 54 56 58 60 62 64 66 68 70 72 73 73 75 76 78 79 81 82 83 83 84 85 86 85 85 85 85 86 89 89 89 91 92 92 93 93 94 95 95 95 96 97 98
32 34 36 38 40 42 44 46 47 48 48 47 42 38 36 36 35 33 31 30 28 28 28 28 29 30 31 32 34 36 36 37 38 40 43 45 46 47 48 50 50 51 52 53 55 57 59 61 63 65 67 69 71 72 74 76 77 78 79 80 81 83 83 84 83 83 85 86 86 85 84 84 85 87 86 86 87 88 88 89 89 89 90 91 91 92 93 94
34 35 37 39 41 43 45 46 47 48 46 41 37 36 36 34 32 31 29 28 27 27 28 28 29 31 33 34 36 37 38 39 40 42 44 47 48 49 49 50 51 52 53 56 58 60 62 64 66 68 69 71 73 75 78 80 80 81 82 83 83 84 84 84 84 82 83 84 84 84 83 81 83 83 83 83 83 83 84 85 85 86 87 87 88 89 90 91
35 37 39 40 42 44 44 45 46 45 40 36 35 35 34 32 30 28 27 26 27 27 28 30 31 32 34 36 37 38 39 41 42 44 46 48 49 50 50 51 52 54 57 59 61 63 65 66 68 69 71 73 75 77 79 82 83 83 84 84 84 83 82 82 82 81 80 81 81 80 79 77 78 79 79 79 80 80 81 82 83 84 84 85 85 86 87 88
36 38 39 41 43 43 44 45 44 39 35 35 35 33 31 29 27 26 26 26 27 28 29 31 33 34 36 37 38 39 40 42 44 46 47 49 50 50 51 53 55 57 60 61 63 65 67 68 70 71 73 75 77 79 80 81 82 83 82 82 81 80 79 79 78 78 77 77 77 77 76 74 74 75 76 77 77 78 79 79 80 81 81 82 83 84 85 86
37 39 40 41 42 43 44 43 38 35 34 34 33 30 28 27 26 25 26 26 28 29 31 33 34 36 37 38 40 42 43 44 46 48 48 49 50 51 53 55 57 59 61 63 65 67 69 71 72 74 76 79 81 83 83 83 82 81 80 79 78 77 76 76 75 74 74 73 73 74 74 73 72 72 73 74 75 75 76 77 77 78 79 80 81 81 83 84
38 39 40 41 42 43 42 38 34 34 34 32 30 28 26 25 25 25 26 27 29 31 33 35 36 37 39 41 43 45 47 48 48 49 49 50 51 53 55 57 59 60 62 64 67 69 71 73 75 77 79 82 84 85 85 84 83 81 79 77 76 75 74 73 72 71 70 70 70 70 70 71 71 70 70 71 72 73 74 75 75 76 77 78 79 80 81 83
37 39 40 41 42 41 37 34 33 33 31 29 27 26 25 25 25 26 28 29 31 33 34 36 37 39 41 43 45 47 49 50 50 50 51 52 53 55 57 58 60 61 63 66 68 70 72 74 77 79 82 85 86 86 85 84 82 80 78 77 75 73 72 71 69 68 67 67 67 67 67 68 69 68 68 69 70 71 72 73 74 74 75 76 77 79 81 83
37 38 40 41 40 36 33 33 33 31 29 27 26 25 25 25 26 27 29 30 32 34 36 37 39 40 42 44 46 48 50 51 51 52 53 54 56 57 58 59 61 63 65 67 69 71 73 75 78 82 84 86 87 86 85 83 81 79 77 75 74 72 71 69 67 66 65 65 65 65 65 65 66 67 67 68 69 70 71 72 72 73 74 75 76 78 80 82
37 38 40 40 36 33 32 32 31 28 27 26 24 24 25 26 27 28 30 32 34 35 36 38 40 42 44 46 47 48 48 49 51 53 54 56 57 57 58 60 62 65 67 68 70 72 74 77 80 83 86 87 87 86 84 82 80 78 76 74 73 71 69 68 66 64 64 64 64 64 64 64 65 66 67 67 68 69 70 71 72 72 73 74 76 78 79 80
37 39 39 36 32 31 32 30 28 26 25 24 24 25 25 26 28 30 31 33 35 36 38 40 42 44 46 47 48 48 49 49 51 53 55 56 57 58 60 63 65 67 68 69 70 73 75 77 81 85 87 87 86 85 83 81 79 76 75 73 71 70 68 67 66 64 62 63 64 64 63 63 64 66 67 68 68 69 70 71 72 73 74 75 76 77 79 80
38 38 35 32 31 31 30 28 26 25 24 24 24 25 26 28 29 31 33 35 36 38 40 42 44 46 47 48 48 49 50 51 52 54 55 56 58 61 63 65 67 68 69 69 71 73 76 78 81 85 87 86 85 82 80 78 76 74 73 71 70 68 67 67 66 63 61 61 62 62 62 62 63 64 65 66 68 68 70 71 72 74 76 76 77 78 80 81
38 35 31 30 31 30 28 26 25 24 24 24 25 26 28 30 31 33 35 36 38 40 42 44 45 47 47 48 49 49 51 52 54 55 57 59 61 63 65 67 68 68 69 70 72 74 76 79 82 85 86 86 83 80 78 76 74 72 71 69 67 66 65 65 65 62 60 59 60 60 60 61 61 63 64 65 67 68 70 72 73 74 76 77 77 78 79 80
Wind_Direction
204 205 204 202 202 204 210 221 226 223 223 229 233 238 242 242 240 238 239 240 242 243 244 246 246 246 247 248 247 247 247 247 247 247 247 247 247 248 249 249 250 250 251 252 253 253 254 255 255 256 256 256 257 257 257 258 258 258 258 258 257 258 258 259 259 259 259 260 260 260 260 260 261 261 262 263 263 264 265 266 266 266 266 267 267 268 268 268
205 206 206 206 206 207 209 218 227 226 223 226 230 233 239 244 246 245 243 242 244 246 248 249 250 250 251 250 250 250 250 250 250 250 251 251 251 251 252 252 253 253 254 255 256 257 257 258 258 259 258 259 259 259 259 259 260 260 260 261 261 261 261 262 262 262 262 262 262 262 262 262 262 262 263 263 264 264 265 266 266 266 267 268 268 268 269 269
209 207 208 209 210 211 212 215 223 227 226 226 228 230 233 239 245 249 250 249 249 250 252 253 254 256 257 257 256 254 253 253 253 253 253 254 254 254 255 255 255 256 257 258 259 259 260 260 260 261 261 261 261 261 261 261 261 261 262 262 263 263 263 264 265 264 264 264 264 263 263 263 263 263 264 264 265 265 266 266 267 268 268 269 269 270 270 270
215 211 210 212 213 214 215 216 218 223 227 228 228 229 230 234 238 243 247 250 252 253 254 256 257 258 259 259 260 261 261 261 260 259 258 258 257 257 256 256 257 258 259 260 261 261 262 262 262 262 262 262 262 262 262 262 262 262 263 263 263 264 264 265 266 265 265 265 264 264 264 264 264 264 264 265 265 266 267 267 268 269 270 270 271 271 271 271
220 217 214 214 215 216 217 218 219 221 223 227 229 229 230 231 234 238 241 245 248 250 252 255 256 256 256 256 256 258 260 262 263 264 265 266 265 263 262 261 261 262 263 263 264 264 264 264 264 264 264 264 264 264 264 264 264 264 264 264 264 265 265 266 266 266 266 266 265 265 265 265 266 266 266 266 267 267 268 269 269 270 270 271 271 271 271 271
222 221 218 217 217 218 219 220 222 223 224 226 228 230 232 232 234 236 239 242 244 246 249 251 253 254 254 255 255 255 256 257 258 260 262 264 266 267 267 267 268 268 268 268 268 269 269 269 268 268 268 267 267 267 267 267 267 266 266 266 266 266 266 267 267 267 267 267 267 267 267 267 267 268 268 268 269 269 269 270 270 270 271 271 272 272 272 273
224 223 222 221 220 220 222 223 225 226 227 227 228 230 232 234 236 238 239 241 243 245 246 248 250 251 253 254 255 255 256 257 257 258 259 261 262 264 265 266 267 268 268 269 269 270 270 271 271 271 271 271 271 270 270 270 270 269 269 269 269 268 268 269 269 269 269 269 269 269 270 270 270 270 270 271 271 271 271 271 272 273 273 273 274 275 275 276
224 224 224 223 223 223 224 226 228 230 231 231 231 232 233 235 237 238 240 241 243 245 247 248 250 252 253 254 255 256 257 258 258 259 260 261 261 263 264 265 266 267 267 268 269 269 269 270 270 270 271 271 271 271 271 271 271 271 271 270 271 271 271 271 271 271 271 271 271 272 272 272 272 272 273 274 274 273 274 274 274 275 275 275 275 275 275 275
225 225 225 225 225 225 225 227 230 233 235 236 236 236 236 238 239 239 240 242 244 246 249 252 254 255 256 257 257 258 259 260 261 262 262 262 263 264 265 266 267 268 269 269 269 270 270 270 270 270 271 271 271 271 272 272 272 272 272 272 272 272 272 272 272 273 273 273 273 273 273 273 273 273 273 273 273 273 274 274 274 274 274 273 273 274 274 274
225 226 226 227 227 227 227 227 228 231 234 237 239 240 241 242 243 244 245 247 248 248 250 251 252 255 256 257 258 259 261 262 263 264 264 264 265 266 266 267 268 268 269 269 270 270 270 270 270 270 270 270 270 270 270 271 271 271 271 271 271 271 272 272 272 272 272 272 272 272 272 272 272 273 272 272 272 273 273 273 273 273 273 273 273 273 274 274
226 227 228 229 229 229 229 228 229 230 231 234 237 239 241 243 245 246 248 249 250 251 251 251 251 251 253 254 256 257 260 261 262 262 263 263 264 265 265 266 266 266 266 267 267 268 268 268 269 269 269 269 269 269 269 269 270 270 270 270 270 270 270 270 271 271 271 271 271 271 271 271 272 272 272 272 272 273 273 273 273 273 273 273 274 274 274 274
229 229 230 232 233 233 232 232 232 232 232 234 235 236 237 239 241 243 245 248 250 251 252 252 252 253 253 255 256 257 258 260 260 261 262 262 263 264 265 265 266 267 267 267 267 267 268 268 269 269 269 269 269 269 270 270 270 270 271 271 271 271 271 271 271 271 271 271 271 271 271 271 272 272 272 272 272 273 273 273 273 273 273 273 273 273 273 273
232 232 233 235 236 237 237 236 236 235 235 236 237 238 237 237 238 240 242 244 246 248 250 251 252 254 255 256 257 258 259 260 261 262 263 263 264 265 265 267 267 268 269 269 269 269 269 269 270 270 270 270 270 270 271 271 271 271 272 272 272 272 272 272 272 272 272 271 271 271 271 271 272 272 272 272 272 272 272 272 272 272 273 273 273 273 273 273
235 236 237 238 239 240 241 240 239 239 238 238 239 240 241 241 241 242 242 244 245 247 249 250 252 254 255 256 258 260 261 262 263 264 264 265 266 267 267 268 268 269 270 270 271 271 271 271 271 271 271 271 271 271 271 271 272 272 272 272 272 272 272 272 272 272 272 272 272 272 272 272 271 271 272 272 272 272 272 272 272 272 272 272 272 273 273 273
238 240 242 243 244 243 243 243 243 242 242 241 241 241 242 243 245 246 247 248 249 250 252 254 255 257 258 259 261 262 264 265 266 267 268 268 269 270 270 270 271 271 271 272 272 272 273 273 273 273 273 273 273 273 273 273 273 274 274 274 274 274 274 273 273 273 273 273 273 272 273 273 272 272 272 272 272 272 272 273 273 273 273 273 273 273 273 274
242 245 248 249 249 248 247 247 246 245 244 244 243 243 244 245 246 248 250 251 253 254 256 258 259 261 262 264 265 266 267 269 270 270 271 271 272 273 273 273 274 274 274 274 274 274 274 274 275 275 275 276 276 276 276 276 276 276 276 276 276 275 275 275 274 273 273 273 273 273 273 273 273 272 272 272 272 273 273 273 273 273 274 274 274 274 274 274
247 251 253 254 254 254 252 251 249 248 247 246 246 246 247 248 250 251 253 255 256 258 260 261 263 264 266 267 268 269 270 270 271 272 273 273 274 275 275 275 275 275 275 275 275 276 276 276 276 276 277 277 278 278 278 278 278 278 278 277 277 276 276 275 274 273 273 273 273 272 273 273 272 272 272 272 272 272 272 273 273 273 274 274 274 274 274 274
254 257 258 259 259 258 256 255 253 252 250 249 249 250 251 253 254 256 258 260 261 262 263 265 266 268 269 270 271 272 272 273 274 275 275 276 276 276 276 276 276 276 277 277 277 277 277 277 277 278 278 279 279 279 279 279 279 279 278 278 277 277 276 275 274 273 273 272 272 272 272 272 271 271 271 271 271 271 271 272 272 272 273 273 274 274 274 274
260 261 262 262 262 261 259 257 256 255 254 254 253 254 255 257 259 261 262 263 265 266 268 269 271 272 273 274 275 276 276 277 277 277 278 278 277 277 277 278 278 278 278 278 278 278 278 279 279 279 280 280 280 280 280 280 280 280 279 278 277 276 275 274 274 273 272 271 271 271 271 270 270 271 271 271 271 271 271 271 271 272 272 273 273 274 274 275
262 263 264 264 263 262 260 259 258 257 258 258 258 259 260 262 264 265 267 268 270 272 274 275 277 278 279 279 280 280 279 279 279 279 279 279 279 279 279 279 279 279 279 279 280 280 280 280 281 282 282 282 281 281 281 281 280 280 280 279 278 277 276 274 273 272 272 271 270 270 270 270 270 270 270 270 270 271 271 271 271 272 272 273 274 274 275 275
263 265 266 265 264 262 261 260 259 259 260 261 262 264 266 268 270 273 275 278 279 281 282 282 283 283 283 282 282 282 282 282 282 282 281 282 282 282 282 282 282 282 282 282 282 282 282 283 283 284 284 283 283 282 282 282 282 281 281 280 279 279 277 276 274 273 272 272 271 271 271 270 270 270 270 270 271 271 271 271 272 272 273 273 274 274 275 276
265 267 267 266 264 261 260 260 260 261 263 266 269 272 275 278 282 284 285 286 287 287 286 286 285 285 285 285 285 285 285 285 285 286 286 285 285 285 285 285 284 284 284 284 284 284 284 285 285 285 285 285 284 284 284 283 283 283 282 281 281 280 278 277 276 274 273 273 272 272 272 272 271 271 272 272 272 272 272 273 273 273 274 274 275 275 276 276
267 269 268 266 264 261 261 263 267 271 275 279 283 287 290 292 293 293 292 292 291 290 289 290 290 290 290 290 289 289 289 289 289 289 289 289 289 288 288 287 287 287 286 286 286 286 287 287 287 287 288 287 287 287 286 285 285 284 284 283 282 281 280 279 277 276 276 275 274 274 274 274 274 274 274 273 273 273 274 274 274 274 275 275 275 275 275 275
270 269 267 265 262 262 267 275 284 289 293 296 297 298 298 297 297 296 296 296 296 296 296 295 295 294 294 294 294 294 293 293 292 292 291 291 290 290 290 290 290 289 289 289 289 289 290 290 290 291 291 290 290 289 288 287 287 286 286 285 284 283 282 281 280 279 278 278 277 277 276 275 276 276 276 275 276 276 276 276 276 276 276 276 276 275 275 275
270 265 260 258 262 272 286 296 300 300 302 303 302 300 299 300 300 300 300 300 300 300 299 299 298 298 298 297 297 296 295 294 293 293 292 292 292 292 293 292 292 293 292 293 292 293 293 293 293 292 292 292 291 290 290 290 289 289 289 288 287 286 286 285 284 282 281 281 281 280 279 279 278 278 278 278 278 278 278 278 278 278 278 277 277 276 276 276
259 254 252 260 275 292 301 305 304 304 306 305 303 302 302 302 302 301 301 301 302 302 302 302 301 301 299 298 297 296 296 295 294 294 294 294 295 295 295 295 295 295 295 295 295 294 294 294 294 293 293 293 292 292 292 292 292 291 291 291 291 290 289 288 288 286 286 285 283 283 283 282 281 280 279 280 280 280 280 280 280 279 279 278 278 278 278 278
245 252 264 282 297 306 309 308 307 308 307 305 304 304 303 302 302 303 303 304 305 304 304 303 302 301 299 299 298 297 297 297 297 296 296 297 297 297 297 297 297 296 296 296 296 296 296 296 296 296 296 296 296 296 296 295 296 296 295 294 294 293 293 292 291 290 289 288 287 286 285 284 283 282 281 281 281 281 281 281 280 279 279 279 279 279 278 278
255 277 297 311 317 318 315 312 310 308 307 306 305 305 305 306 306 307 307 307 306 305 304 303 302 301 301 301 300 300 300 299 299 299 299 300 300 300 300 299 299 298 298 298 298 298 299 299 299 299 299 299 298 298 298 298 298 298 297 297 296 295 294 294 293 292 290 289 288 288 286 285 284 283 283 282 282 282 282 281 280 279 279 279 279 279 279 278
286 311 322 325 324 320 315 312 310 309 309 309 308 308 308 309 309 308 308 307 306 305 305 304 303 303 303 303 303 302 303 302 303 302 302 302 301 301 300 300 300 299 300 300 300 301 301 301 301 301 301 301 301 300 300 300 300 299 299 298 297 296 295 295 293 292 291 289 289 288 286 285 285 285 284 283 283 282 281 280 280 280 279 279 279 279 279 279
311 322 323 322 319 316 313 312 312 312 311 310 309 309 309 309 309 309 308 307 306 306 306 306 306 305 305 305 304 305 305 305 305 304 304 303 303 303 302 302 302 303 303 303 303 304 304 305 304 304 304 304 303 303 303 302 301 301 300 299 298 297 296 295 294 292 290 289 290 288 287 286 285 285 284 283 283 282 281 281 280 280 280 280 279 279 279 279
311 314 315 315 314 312 312 313 313 312 311 309 309 308 308 309 309 309 308 307 307 307 307 307 307 306 306 306 306 306 306 305 304 304 304 304 304 305 304 304 304 304 303 303 303 304 304 305 306 305 306 305 304 304 303 303 302 301 300 298 298 296 295 295 293 292 291 290 290 288 287 286 286 286 285 284 283 282 281 281 281 280 280 280 280 280 280 280
306 307 308 309 309 310 311 312 311 310 309 308 308 308 308 309 309 308 308 308 309 309 308 308 307 307 308 308 307 306 306 305 305 305 304 304 304 304 304 304 305 306 306 307 307 307 307 307 307 307 307 305 304 304 303 303 302 301 300 299 298 296 295 294 292 291 290 290 290 288 287 286 286 286 285 284 283 282 282 282 281 281 281 281 281 281 281 281
302 303 305 306 307 308 310 310 309 308 307 307 307 308 308 308 309 309 309 310 310 309 309 309 309 309 309 308 308 307 307 306 306 306 306 306 307 308 309 309 310 311 311 311 311 310 310 310 309 309 308 306 306 305 304 303 302 301 300 299 298 296 295 294 292 291 290 289 289 288 287 287 287 287 286 285 284 284 284 283 283 283 283 282 282 282 282 282
303 304 305 305 306 308 309 308 307 306 306 307 308 308 308 309 309 310 310 310 310 310 311 311 310 310 309 308 308 308 308 308 308 308 308 309 311 312 313 313 312 312 312 312 312 311 311 311 311 310 309 308 307 306 305 304 302 301 300 299 298 297 295 294 293 292 291 290 289 289 288 288 288 287 287 286 285 285 285 285 285 284 284 284 283 283 283 283
304 304 304 305 307 307 306 305 305 305 307 307 308 308 309 310 310 311 311 311 311 312 312 311 311 310 310 310 310 309 309 309 310 312 312 314 314 314 314 314 313 313 313 313 313 313 312 312 312 312 311 309 308 307 306 304 303 302 301 300 299 298 297 296 295 293 293 292 291 290 290 289 289 289 288 287 287 287 286 286 286 285 285 285 284 284 284 283
302 303 304 306 305 304 304 304 305 307 308 308 309 309 310 311 311 311 312 312 312 312 312 311 311 310 310 310 310 311 311 312 314 315 315 316 315 315 315 315 315 315 315 315 315 314 314 313 313 312 311 309 308 307 306 305 304 303 302 301 300 299 298 298 296 295 295 294 293 292 292 291 291 290 289 289 289 288 288 287 287 286 286 286 285 285 285 284
301 303 305 305 304 303 304 306 307 308 308 309 309 310 311 311 312 312 312 313 313 312 311 310 310 310 310 311 312 313 315 315 317 316 316 316 316 317 317 317 317 317 317 317 316 315 315 313 313 312 311 310 309 308 308 307 307 305 304 303 302 301 300 299 298 297 297 296 295 295 294 293 293 292 290 290 290 289 289 288 288 287 287 286 286 286 285 285
302 303 303 303 303 305 306 307 308 308 308 309 310 311 311 312 312 313 313 314 313 312 311 311 312 312 313 314 316 317 318 318 317 317 317 318 319 319 319 318 318 318 318 317 316 315 315 314 314 313 313 312 311 310 309 309 308 307 306 305 304 303 302 301 300 299 298 297 296 295 295 294 293 292 291 291 290 289 289 288 288 287 287 286 286 286 285 285
301 301 301 303 304 306 307 307 307 308 309 310 311 312 312 313 313 314 314 314 313 313 313 314 314 315 316 318 318 319 319 319 319 319 320 320 321 321 320 320 320 319 319 318 317 317 316 316 315 314 314 313 312 311 310 309 308 307 307 306 305 304 303 302 301 300 299 297 296 295 294 294 293 291 290 290 289 289 288 288 287 287 287 287 286 286 286 285
298 300 302 304 306 306 307 307 307 309 310 311 312 313 313 314 315 315 314 314 313 314 315 316 316 317 319 320 320 320 320 320 321 322 322 322 323 323 322 322 321 320 320 319 319 319 318 318 317 316 315 314 313 312 311 311 310 309 308 307 306 304 303 303 302 301 300 298 297 296 295 295 293 292 291 291 290 289 289 288 288 288 287 287 287 286 286 286
298 301 303 305 306 306 306 307 308 310 312 313 313 314 315 315 316 315 314 313 314 315 316 317 318 320 321 322 321 321 322 323 324 324 324 324 324 324 323 322 321 321 321 321 321 320 319 319 318 317 317 316 315 314 313 312 312 311 310 308 307 306 305 304 303 302 301 299 299 298 297 296 294 293 293 292 291 290 290 289 289 288 288 288 287 287 287 287
300 303 304 305 305 305 307 308 310 312 313 314 314 315 316 316 316 315 314 315 316 317 318 320 322 323 323 323 322 323 324 325 326 327 326 326 325 324 324 323 324 324 323 323 322 321 320 320 319 319 318 317 316 316 315 314 313 313 312 310 309 308 307 305 304 303 301 300 299 298 297 296 295 294 293 293 292 291 291 290 290 289 289 288 288 288 288 287
301 303 304 304 305 306 308 311 313 314 314 315 316 317 317 316 315 314 315 317 318 319 321 323 324 324 323 323 324 325 327 327 328 328 327 327 326 326 326 326 326 325 325 324 323 322 321 321 320 320 319 318 318 317 316 315 315 314 313 311 310 309 307 306 305 304 302 300 299 298 297 296 295 294 294 293 292 292 291 291 290 290 289 289 289 288 288 288
301 303 304 305 306 308 311 313 314 315 315 317 317 317 316 315 315 316 318 319 319 322 324 325 325 324 324 325 326 327 328 329 329 329 328 328 327 327 328 327 327 326 325 325 324 323 322 322 321 321 320 319 319 318 317 316 315 314 313 312 310 309 308 307 306 304 303 301 300 299 298 298 296 295 294 293 292 292 291 291 291 291 290 290 290 290 290 290
302 303 305 306 308 311 313 315 315 316 317 318 317 317 315 315 316 318 319 320 323 325 326 325 325 325 326 328 329 330 331 331 331 330 329 329 329 329 329 328 327 327 326 325 325 324 324 324 323 323 322 321 321 320 319 318 317 316 315 313 312 311 310 308 307 306 304 303 301 300 299 298 297 296 295 294 294 293 292 292 292 292 292 292 292 292 292 292
303 304 306 308 311 313 315 316 316 317 318 318 317 316 316 317 318 319 320 323 326 326 326 326 326 328 329 331 331 332 332 332 331 331 330 331 331 330 329 328 328 327 326 326 326 326 326 325 325 325 324 324 323 322 321 320 319 318 317 316 314 313 311 310 308 307 305 303 302 300 299 298 297 296 295 294 294 294 294 294 294 294 294 294 294 294 294 293
304 306 308 311 313 315 316 317 318 318 318 317 317 316 317 318 319 321 324 326 327 326 326 327 329 330 332 333 333 333 332 332 331 332 332 332 331 330 329 328 328 327 328 328 328 328 327 327 326 326 326 325 324 324 323 322 321 320 319 318 316 315 313 311 310 308 307 305 303 301 300 299 298 298 297 296 296 296 296 296 296 296 297 297 297 296 296 296
306 308 311 313 315 316 317 318 319 319 318 317 316 317 317 319 322 324 326 327 327 327 327 329 331 332 333 334 334 333 332 332 333 333 333 331 330 330 330 329 329 329 329 329 329 329 329 328 328 328 327 327 326 325 325 324 323 322 320 319 318 316 315 313 312 311 309 307 305 304 302 301 300 300 299 299 298 298 298 298 299 299 299 299 299 298 299 299
308 311 313 315 317 317 318 319 319 318 317 316 316 317 319 322 325 326 327 327 327 328 329 331 333 334 334 334 333 332 333 333 333 332 331 331 330 330 330 330 330 330 330 330 330 330 330 330 330 329 329 328 328 327 326 325 324 323 322 321 319 318 316 315 314 313 311 309 308 307 305 304 303 302 302 301 301 301 301 301 301 301 301 301 301 302 302 302
311 313 316 317 318 319 319 319 318 317 316 316 317 319 321 324 326 327 328 328 329 330 332 333 334 335 334 333 333 333 334 334 333 331 331 331 331 331 331 331 331 331 331 331 331 331 331 332 331 331 331 330 329 328 327 326 325 324 323 322 321 320 318 317 316 315 314 312 310 309 308 307 306 305 305 305 304 304 304 304 304 304 304 304 305 305 305 305
314 316 317 318 319 319 319 318 317 316 316 317 319 321 324 326 328 329 329 330 331 333 334 335 335 334 334 333 334 334 334 333 332 331 331 332 332 332 332 332 332 332 331 332 332 333 333 333 333 333 332 332 331 330 329 328 327 326 325 324 323 322 321 319 318 317 316 313 312 311 310 309 308 307 306 306 306 307 307 307 308 308 308 308 308 308 307 307
316 318 318 319 320 319 318 317 316 316 316 318 321 324 326 328 329 330 331 332 333 334 334 334 334 334 334 334 335 334 333 332 332 332 332 333 333 333 333 333 333 333 333 333 333 334 334 335 335 335 334 333 332 331 330 329 329 328 327 327 326 325 323 321 319 319 318 315 313 312 311 310 309 309 309 309 310 310 311 310 310 310 309 309 309 309 309 309
Height
10720 10722 10723 10725 10726 10728 10729 10729 10730 10732 10733 10734 10735 10735 10736 10738 10739 10741 10742 10743 10744 10745 10745 10746 10746 10746 10747 10747 10747 10747 10747 10747 10747 10748 10747 10747 10747 10747 10746 10746 10746 10746 10745 10745 10745 10744 10744 10743 10742 10742 10741 10740 10740 10739 10738 10737 10736 10736 10735 10733 10731 10728 10729 10728 10727 10726 10724 10724 10723 10721 10721 10721 10720 10718 10716 10714 10712 10710 10709 10708 10706 10703 10701 10700 10699 10698 10697 10695
10717 10719 10721 10722 10724 10725 10727 10727 10728 10730 10731 10732 10733 10734 10735 10735 10736 10738 10739 10740 10741 10742 10742 10742 10743 10743 10743 10743 10744 10744 10744 10744 10744 10743 10743 10743 10743 10743 10742 10742 10742 10741 10741 10740 10740 10739 10739 10738 10737 10737 10736 10735 10734 10733 10733 10731 10731 10730 10729 10728 10724 10723 10723 10722 10720 10719 10717 10717 10717 10714 10714 10714 10713 10710 10708 10708 10705 10703 10703 10701 10696 10695 10694 10692 10690 10689 10688 10687
10715 10717 10719 10720 10722 10723 10724 10725 10726 10727 10729 10730 10731 10732 10733 10734 10734 10735 10736 10737 10738 10738 10739 10739 10739 10739 10739 10739 10739 10740 10740 10740 10740 10739 10739 10739 10739 10738 10738 10737 10737 10736 10736 10736 10735 10734 10734 10733 10732 10731 10730 10729 10728 10727 10727 10725 10724 10724 10723 10721 10719 10716 10716 10715 10714 10712 10711 10710 10709 10707 10706 10705 10705 10703 10702 10700 10697 10696 10695 10692 10688 10687 10686 10683 10681 10680 10679 10678
10712 10714 10716 10718 10719 10721 10722 10723 10724 10725 10726 10727 10729 10730 10731 10732 10732 10733 10734 10734 10735 10735 10735 10735 10736 10736 10736 10735 10735 10735 10735 10735 10735 10735 10734 10734 10734 10734 10733 10733 10732 10732 10731 10730 10730 10729 10728 10727 10726 10725 10724 10723 10721 10721 10721 10718 10718 10718 10716 10714 10712 10710 10709 10709 10706 10704 10704 10702 10701 10700 10698 10697 10696 10696 10694 10692 10689 10688 10685 10682 10681 10679 10676 10673 10672 10671 10669 10668
10710 10712 10714 10716 10717 10719 10720 10721 10722 10722 10723 10724 10725 10727 10728 10729 10730 10731 10731 10732 10732 10732 10732 10733 10732 10732 10732 10732 10732 10732 10732 10732 10731 10730 10730 10729 10728 10728 10728 10727 10727 10726 10725 10724 10723 10722 10722 10720 10719 10718 10717 10717 10715 10714 10713 10711 10711 10711 10708 10706 10706 10703 10702 10702 10698 10697 10696 10693 10693 10691 10690 10689 10688 10687 10686 10684 10681 10679 10677 10673 10672 10669 10666 10664 10662 10661 10660 10658
10707 10709 10711 10713 10715 10716 10718 10718 10719 10720 10720 10721 10723 10724 10725 10726 10727 10728 10728 10729 10729 10730 10730 10730 10729 10729 10728 10728 10728 10727 10727 10727 10727 10726 10726 10724 10723 10723 10722 10722 10721 10720 10719 10718 10717 10716 10715 10714 10712 10712 10710 10710 10708 10706 10706 10703 10703 10703 10701 10698 10697 10695 10695 10694 10690 10688 10687 10685 10684 10682 10681 10680 10679 10678 10677 10675 10671 10669 10667 10664 10661 10659 10657 10655 10652 10651 10649 10646
10705 10707 10709 10710 10712 10713 10715 10716 10716 10717 10718 10719 10720 10721 10722 10723 10724 10725 10725 10726 10726 10726 10726 10726 10726 10725 10724 10724 10723 10723 10723 10722 10722 10722 10721 10720 10719 10719 10718 10717 10715 10714 10713 10712 10711 10709 10708 10707 10705 10704 10702 10702 10700 10699 10698 10695 10695 10695 10693 10690 10688 10687 10687 10685 10682 10680 10678 10677 10675 10673 10672 10671 10670 10669 10667 10665 10662 10658 10656 10654 10651 10650 10648 10645 10642 10640 10638 10635
10703 10705 10706 10707 10709 10710 10711 10713 10713 10714 10715 10717 10718 10719 10720 10721 10721 10722 10722 10722 10722 10722 10722 10722 10721 10720 10720 10719 10719 10718 10718 10717 10717 10717 10716 10715 10715 10713 10712 10711 10710 10708 10707 10706 10705 10703 10702 10700 10698 10697 10695 10694 10692 10691 10689 10688 10688 10686 10684 10683 10680 10679 10678 10676 10674 10672 10669 10667 10665 10664 10663 10662 10660 10659 10658 10656 10651 10647 10645 10643 10641 10639 10637 10634 10632 10630 10627 10624
10702 10703 10704 10705 10706 10707 10708 10710 10710 10711 10712 10714 10715 10716 10717 10717 10718 10718 10718 10718 10719 10719 10718 10717 10717 10716 10715 10715 10714 10714 10713 10712 10713 10712 10711 10710 10709 10708 10707 10705 10704 10702 10701 10699 10698 10696 10694 10693 10691 10689 10688 10686 10684 10683 10681 10679 10680 10678 10674 10675 10673 10670 10669 10667 10665 10662 10660 10658 10656 10655 10654 10652 10650 10649 10650 10645 10639 10637 10635 10633 10630 10628 10626 10624 10621 10619 10616 10613
10700 10701 10702 10703 10704 10705 10706 10707 10707 10709 10710 10711 10712 10712 10713 10714 10714 10714 10715 10715 10714 10714 10714 10713 10713 10712 10711 10710 10710 10709 10708 10708 10708 10707 10706 10704 10703 10702 10701 10699 10698 10696 10695 10693 10691 10689 10687 10685 10683 10681 10680 10679 10676 10675 10673 10671 10671 10670 10666 10666 10664 10662 10660 10657 10656 10653 10650 10649 10647 10645 10644 10642 10640 10640 10640 10635 10629 10628 10626 10622 10619 10617 10615 10613 10611 10608 10605 10602
10698 10699 10700 10700 10701 10702 10703 10704 10705 10706 10707 10708 10709 10709 10710 10710 10711 10711 10711 10710 10710 10709 10709 10709 10709 10708 10707 10706 10706 10705 10703 10704 10703 10701 10700 10699 10698 10696 10694 10693 10692 10690 10688 10686 10684 10682 10680 10678 10675 10673 10672 10670 10668 10666 10665 10663 10662 10660 10658 10657 10655 10653 10651 10648 10646 10643 10641 10640 10637 10634 10634 10633 10631 10630 10628 10624 10620 10618 10615 10611 10608 10605 10603 10601 10599 10596 10593 10590
10696 10697 10698 10698 10699 10700 10701 10702 10702 10703 10704 10705 10705 10706 10707 10707 10707 10707 10707 10706 10706 10705 10705 10705 10704 10703 10702 10702 10701 10700 10699 10699 10698 10696 10695 10693 10692 10690 10688 10686 10684 10682 10681 10679 10677 10675 10672 10670 10668 10665 10663 10662 10660 10657 10656 10654 10651 10650 10648 10647 10645 10642 10640 10639 10636 10633 10631 10630 10626 10623 10622 10623 10622 10619 10615 10613 10610 10606 10603 10600 10597 10594 10591 10588 10586 10583 10580 10577
10695 10695 10696 10696 10697 10698 10698 10699 10700 10700 10701 10701 10702 10703 10703 10703 10703 10703 10703 10702 10702 10701 10701 10700 10699 10698 10698 10697 10696 10695 10694 10693 10692 10690 10689 10687 10685 10683 10681 10680 10677 10675 10673 10670 10668 10666 10664 10662 10659 10657 10654 10652 10650 10648 10646 10644 10641 10640 10637 10635 10634 10630 10629 10628 10624 10621 10620 10617 10614 10612 10609 10612 10613 10606 10602 10601 10598 10595 10591 10588 10585 10582 10579 10576 10573 10570 10567 10564
10693 10694 10694 10694 10695 10695 10696 10696 10697 10697 10698 10698 10699 10699 10699 10699 10699 10699 10698 10698 10698 10697 10696 10695 10695 10694 10693 10693 10691 10689 10688 10687 10686 10684 10683 10680 10678 10676 10674 10673 10670 10667 10665 10662 10660 10657 10654 10652 10650 10647 10644 10642 10640 10638 10636 10634 10631 10629 10626 10623 10622 10618 10617 10617 10612 10608 10608 10604 10602 10599 10594 10599 10603 10594 10589 10588 10585 10582 10579 10577 10573 10570 10567 10564 10561 10557 10555 10552
10692 10692 10692 10692 10693 10693 10693 10694 10694 10694 10695 10695 10695 10695 10695 10695 10694 10694 10694 10694 10693 10693 10692 10691 10690 10689 10688 10687 10686 10684 10683 10681 10680 10678 10676 10674 10671 10669 10667 10665 10662 10660 10657 10654 10651 10648 10645 10642 10640 10637 10634 10631 10629 10627 10625 10624 10621 10618 10614 10612 10611 10606 10604 10605 10601 10596 10595 10591 10589 10587 10581 10585 10588 10581 10577 10575 10572 10570 10567 10564 10561 10557 10554 10551 10548 10545 10543 10540
10690 10690 10690 10690 10691 10691 10691 10691 10691 10691 10692 10692 10692 10691 10691 10691 10690 10690 10690 10689 10689 10688 10688 10687 10685 10684 10683 10682 10681 10679 10677 10675 10673 10671 10669 10667 10665 10662 10659 10657 10654 10651 10648 10645 10643 10640 10637 10634 10630 10627 10624 10621 10618 10616 10614 10612 10610 10606 10603 10601 10599 10595 10591 10591 10590 10585 10582 10579 10577 10573 10570 10573 10573 10568 10566 10563 10560 10558 10555 10552 10548 10545 10542 10539 10536 10534 10531 10528
10688 10688 10688 10688 10688 10689 10689 10689 10689 10688 10689 10688 10688 10688 10688 10687 10687 10687 10686 10686 10685 10684 10683 10682 10681 10680 10679 10677 10675 10674 10672 10669 10667 10665 10663 10660 10658 10655 10652 10649 10646 10644 10640 10637 10634 10632 10628 10625 10622 10618 10615 10612 10609 10606 10603 10601 10598 10596 10594 10589 10586 10585 10581 10578 10578 10575 10571 10568 10566 10562 10559 10561 10559 10555 10554 10552 10550 10547 10544 10541 10537 10534 10531 10528 10525 10522 10520 10517
10687 10687 10686 10686 10686 10686 10686 10686 10686 10686 10686 10685 10685 10685 10685 10684 10684 10683 10683 10682 10681 10680 10679 10678 10677 10675 10674 10672 10670 10668 10666 10664 10662 10659 10657 10654 10651 10648 10645 10642 10639 10636 10633 10629 10626 10623 10620 10616 10613 10610 10607 10603 10600 10596 10593 10591 10587 10584 10583 10579 10575 10573 10570 10567 10565 10563 10560 10556 10554 10551 10550 10549 10546 10543 10542 10540 10538 10536 10533 10530 10526 10523 10520 10517 10514 10512 10509 10506
10685 10685 10685 10684 10684 10684 10683 10683 10683 10683 10683 10683 10683 10682 10682 10681 10681 10680 10679 10678 10677 10676 10675 10673 10672 10671 10669 10667 10665 10663 10661 10658 10656 10653 10650 10647 10645 10642 10638 10635 10631 10628 10625 10621 10618 10614 10612 10607 10603 10601 10598 10595 10590 10586 10583 10580 10577 10573 10571 10568 10565 10562 10559 10557 10554 10551 10549 10546 10543 10540 10539 10539 10535 10532 10530 10528 10526 10524 10521 10518 10515 10513 10510 10507 10504 10501 10498 10496
10684 10683 10683 10682 10682 10682 10681 10681 10681 10681 10680 10680 10680 10680 10679 10678 10678 10677 10676 10675 10674 10672 10671 10670 10668 10667 10665 10663 10660 10658 10655 10652 10650 10647 10644 10640 10637 10634 10631 10627 10624 10620 10617 10614 10609 10606 10603 10599 10595 10592 10589 10586 10581 10577 10573 10570 10567 10563 10560 10557 10554 10551 10548 10547 10544 10540 10537 10535 10533 10530 10528 10528 10525 10521 10519 10516 10514 10511 10509 10506 10504 10501 10499 10496 10493 10490 10488 10485
10682 10682 10681 10681 10680 10680 10679 10679 10679 10678 10678 10678 10677 10677 10677 10676 10675 10674 10673 10672 10670 10669 10668 10666 10664 10663 10660 10658 10655 10653 10650 10646 10643 10640 10637 10634 10630 10627 10623 10619 10616 10612 10608 10605 10601 10597 10594 10590 10587 10583 10580 10576 10572 10569 10565 10561 10558 10554 10551 10548 10544 10542 10539 10537 10534 10531 10527 10524 10523 10520 10518 10517 10514 10511 10508 10505 10502 10499 10496 10494 10492 10490 10488 10485 10482 10480 10477 10475
10680 10680 10680 10679 10679 10678 10678 10677 10677 10677 10676 10676 10675 10675 10674 10674 10673 10672 10670 10669 10668 10666 10664 10663 10661 10658 10655 10653 10650 10647 10644 10640 10637 10633 10629 10626 10622 10619 10615 10611 10608 10604 10600 10596 10593 10589 10586 10582 10578 10575 10571 10567 10564 10561 10557 10553 10550 10546 10543 10540 10537 10534 10530 10528 10526 10521 10518 10516 10514 10511 10509 10507 10504 10501 10498 10494 10491 10488 10486 10484 10482 10479 10477 10474 10472 10469 10466 10463
10679 10678 10678 10677 10677 10677 10676 10676 10675 10675 10675 10674 10674 10673 10672 10671 10670 10669 10668 10666 10665 10663 10661 10658 10656 10653 10650 10647 10644 10641 10637 10634 10630 10626 10621 10618 10614 10610 10606 10602 10599 10595 10592 10588 10585 10581 10578 10575 10571 10568 10564 10560 10557 10554 10550 10547 10544 10540 10537 10533 10530 10527 10523 10520 10519 10514 10510 10508 10506 10503 10500 10498 10495 10492 10488 10483 10480 10478 10476 10474 10471 10469 10467 10464 10461 10458 10455 10451
10677 10677 10676 10676 10675 10675 10675 10674 10674 10673 10673 10673 10672 10671 10670 10669 10668 10666 10665 10663 10661 10658 10656 10653 10651 10648 10645 10641 10637 10634 10630 10626 10623 10619 10614 10610 10606 10602 10598 10594 10590 10587 10584 10581 10577 10574 10572 10568 10565 10562 10558 10554 10551 10547 10544 10540 10537 10534 10531 10527 10524 10521 10517 10514 10511 10508 10503 10500 10499 10494 10491 10491 10489 10483 10478 10473 10470 10469 10467 10464 10462 10459 10457 10453 10450 10446 10442 10438
10676 10676 10675 10675 10674 10674 10674 10673 10673 10672 10672 10671 10670 10669 10668 10666 10665 10663 10661 10659 10656 10654 10651 10648 10645 10642 10639 10635 10631 10627 10623 10619 10615 10611 10607 10603 10599 10595 10591 10587 10584 10581 10577 10574 10571 10568 10565 10562 10559 10556 10552 10549 10545 10541 10537 10534 10531 10528 10525 10521 10518 10515 10511 10507 10504 10501 10497 10494 10492 10486 10481 10483 10483 10477 10469 10465 10462 10460 10457 10455 10452 10449 10445 10441 10437 10434 10430 10426
10675 10675 10674 10674 10673 10673 10673 10672 10672 10671 10670 10669 10668 10667 10665 10663 10662 10660 10657 10655 10652 10649 10646 10643 10640 10636 10632 10629 10624 10620 10616 10611 10607 10604 10599 10596 10592 10589 10585 10581 10578 10575 10572 10569 10566 10563 10560 10556 10553 10550 10546 10543 10539 10535 10532 10528 10525 10522 10519 10515 10511 10508 10505 10501 10497 10494 10490 10486 10485 10481 10473 10471 10474 10470 10462 10458 10455 10451 10449 10446 10442 10438 10433 10429 10425 10422 10418 10414
10674 10674 10673 10673 10673 10672 10672 10671 10670 10669 10668 10667 10665 10664 10662 10660 10658 10656 10653 10651 10647 10644 10641 10637 10634 10630 10626 10622 10617 10613 10609 10604 10600 10597 10593 10590 10587 10583 10580 10576 10573 10570 10566 10563 10561 10557 10554 10551 10547 10544 10540 10537 10533 10529 10526 10522 10519 10516 10513 10509 10506 10502 10498 10495 10491 10487 10483 10479 10476 10475 10467 10460 10463 10463 10456 10451 10447 10443 10441 10437 10432 10427 10422 10418 10415 10411 10407 10402
10673 10673 10673 10672 10672 10671 10670 10670 10669 10667 10666 10665 10663 10661 10659 10657 10654 10652 10649 10646 10642 10638 10636 10632 10628 10623 10619 10614 10610 10606 10602 10598 10595 10591 10588 10585 10581 10578 10574 10571 10567 10564 10561 10558 10555 10552 10549 10546 10542 10539 10535 10532 10528 10524 10521 10518 10514 10510 10507 10503 10500 10496 10492 10489 10484 10480 10476 10472 10469 10468 10461 10452 10451 10454 10449 10443 10440 10436 10432 10427 10421 10417 10413 10409 10405 10400 10396 10391
10673 10672 10672 10671 10671 10670 10669 10668 10667 10665 10664 10662 10660 10658 10655 10653 10650 10647 10644 10641 10637 10633 10630 10626 10622 10617 10612 10608 10603 10600 10596 10593 10590 10586 10583 10580 10577 10573 10570 10566 10563 10559 10556 10553 10550 10547 10544 10541 10537 10534 10531 10527 10523 10519 10516 10513 10509 10505 10502 10498 10494 10490 10486 10482 10477 10474 10468 10464 10462 10458 10453 10445 10441 10445 10442 10434 10431 10427 10421 10416 10411 10407 10402 10398 10393 10389 10384 10380
10672 10671 10671 10670 10669 10668 10667 10666 10664 10663 10661 10659 10656 10654 10651 10649 10646 10643 10639 10636 10632 10628 10624 10620 10615 10611 10607 10603 10599 10595 10592 10588 10585 10581 10578 10575 10571 10568 10565 10561 10558 10555 10552 10549 10546 10543 10540 10537 10533 10529 10526 10522 10518 10514 10511 10507 10504 10500 10496 10492 10488 10483 10480 10475 10469 10466 10460 10457 10455 10449 10443 10437 10431 10434 10433 10424 10420 10416 10409 10404 10400 10395 10391 10386 10382 10377 10372 10367
10671 10670 10669 10668 10667 10666 10665 10664 10662 10660 10658 10655 10653 10650 10647 10645 10641 10638 10634 10631 10627 10623 10618 10613 10609 10605 10602 10599 10595 10592 10588 10585 10581 10578 10574 10570 10567 10564 10561 10557 10554 10551 10548 10545 10543 10540 10537 10534 10529 10525 10522 10517 10513 10510 10506 10502 10497 10494 10490 10485 10482 10477 10473 10468 10462 10457 10451 10447 10447 10440 10434 10429 10422 10423 10422 10414 10409 10403 10398 10394 10389 10384 10380 10374 10370 10365 10360 10355
10669 10669 10668 10667 10665 10664 10663 10661 10659 10657 10655 10652 10649 10647 10643 10640 10637 10633 10629 10625 10621 10616 10612 10608 10604 10601 10598 10595 10591 10588 10584 10581 10578 10574 10571 10568 10564 10561 10558 10554 10551 10547 10544 10540 10537 10535 10532 10529 10525 10521 10517 10512 10508 10505 10500 10496 10491 10487 10483 10478 10474 10470 10466 10461 10455 10450 10444 10439 10437 10430 10423 10420 10414 10412 10410 10403 10397 10391 10386 10382 10377 10372 10367 10362 10357 10352 10347 10342
10668 10667 10666 10665 10663 10662 10660 10658 10656 10654 10651 10649 10646 10642 10639 10635 10632 10628 10623 10619 10615 10611 10607 10604 10600 10597 10594 10590 10587 10584 10581 10577 10574 10571 10567 10564 10561 10557 10554 10550 10547 10543 10540 10535 10531 10528 10525 10523 10520 10516 10512 10506 10502 10498 10494 10490 10485 10480 10475 10470 10466 10461 10457 10453 10446 10441 10436 10431 10428 10422 10413 10409 10405 10401 10397 10390 10384 10379 10374 10370 10365 10360 10354 10349 10344 10338 10333 10327
10666 10665 10664 10662 10661 10659 10657 10655 10653 10650 10648 10645 10642 10638 10634 10631 10627 10623 10618 10614 10610 10606 10603 10599 10596 10593 10590 10587 10583 10580 10577 10574 10571 10568 10564 10561 10558 10554 10550 10547 10543 10540 10536 10532 10528 10523 10519 10517 10514 10510 10506 10500 10495 10491 10487 10482 10478 10473 10467 10462 10457 10451 10447 10443 10437 10432 10426 10420 10417 10412 10404 10398 10395 10391 10385 10377 10371 10367 10362 10357 10352 10346 10341 10335 10330 10324 10318 10313
10664 10663 10661 10660 10658 10656 10654 10652 10650 10647 10644 10641 10637 10634 10630 10626 10622 10618 10613 10609 10606 10602 10599 10596 10592 10589 10586 10583 10580 10577 10574 10571 10568 10565 10561 10558 10554 10551 10547 10543 10539 10535 10532 10528 10524 10519 10514 10510 10507 10503 10498 10493 10488 10484 10479 10474 10470 10465 10460 10454 10447 10441 10436 10432 10426 10421 10415 10409 10404 10401 10395 10387 10382 10378 10372 10364 10359 10355 10349 10344 10338 10332 10327 10321 10315 10309 10303 10298
10662 10660 10659 10657 10656 10654 10651 10649 10646 10643 10640 10636 10633 10629 10625 10621 10617 10613 10609 10606 10602 10599 10596 10592 10589 10586 10583 10580 10577 10574 10571 10568 10565 10562 10558 10555 10551 10548 10544 10540 10535 10531 10527 10523 10519 10514 10509 10504 10500 10497 10492 10486 10481 10476 10471 10465 10460 10456 10450 10445 10438 10432 10426 10420 10415 10410 10405 10398 10391 10388 10383 10376 10371 10365 10357 10350 10346 10342 10335 10329 10324 10318 10312 10306 10300 10294 10288 10282
10659 10658 10657 10655 10653 10651 10648 10645 10642 10639 10635 10632 10628 10624 10620 10616 10612 10609 10605 10602 10599 10596 10593 10589 10586 10584 10581 10578 10575 10572 10569 10565 10562 10559 10556 10552 10548 10544 10540 10535 10531 10527 10522 10518 10513 10509 10505 10499 10493 10489 10485 10479 10473 10469 10464 10457 10450 10445 10440 10434 10428 10423 10416 10409 10404 10397 10393 10386 10378 10375 10370 10363 10358 10351 10343 10338 10332 10326 10320 10314 10308 10302 10296 10290 10284 10278 10272 10266
10657 10656 10654 10652 10650 10647 10645 10642 10638 10635 10631 10628 10624 10620 10616 10612 10608 10605 10602 10599 10595 10592 10589 10586 10583 10581 10578 10575 10572 10569 10566 10562 10559 10556 10552 10549 10544 10540 10536 10531 10527 10522 10517 10513 10508 10502 10498 10494 10488 10482 10478 10472 10465 10460 10456 10450 10443 10436 10430 10423 10417 10411 10404 10398 10392 10385 10380 10374 10366 10361 10356 10351 10345 10334 10327 10325 10319 10311 10305 10298 10292 10287 10280 10274 10268 10262 10256 10250
10655 10653 10652 10649 10647 10644 10641 10638 10634 10631 10627 10623 10619 10615 10612 10608 10605 10602 10598 10595 10592 10589 10586 10583 10580 10578 10575 10572 10569 10566 10563 10559 10556 10552 10548 10545 10540 10536 10531 10527 10522 10517 10512 10507 10502 10497 10491 10487 10482 10476 10471 10465 10458 10452 10446 10442 10436 10428 10421 10413 10406 10399 10392 10385 10380 10372 10366 10361 10354 10348 10342 10339 10333 10321 10314 10311 10304 10296 10290 10284 10278 10272 10265 10259 10253 10247 10241 10235
10653 10651 10649 10646 10644 10640 10637 10634 10630 10627 10623 10619 10615 10611 10608 10605 10602 10599 10595 10592 10589 10586 10584 10581 10578 10575 10572 10570 10567 10564 10561 10557 10553 10549 10545 10540 10536 10531 10526 10522 10517 10512 10507 10502 10496 10491 10485 10480 10475 10468 10462 10456 10450 10443 10436 10429 10424 10418 10410 10403 10395 10387 10379 10372 10367 10359 10350 10344 10339 10333 10328 10324 10317 10307 10301 10297 10289 10282 10276 10269 10264 10258 10251 10245 10239 10233 10227 10220
10650 10648 10646 10643 10640 10637 10634 10630 10627 10623 10619 10615 10611 10608 10605 10602 10598 10595 10593 10590 10587 10584 10581 10579 10576 10573 10570 10567 10564 10561 10558 10554 10550 10545 10541 10536 10532 10527 10523 10517 10512 10507 10502 10496 10491 10485 10479 10473 10467 10461 10454 10447 10440 10434 10426 10418 10412 10405 10397 10390 10382 10374 10366 10358 10353 10347 10338 10328 10322 10317 10313 10309 10301 10291 10287 10282 10274 10268 10261 10255 10250 10244 10238 10232 10225 10219 10213 10207
10648 10645 10643 10640 10637 10633 10630 10626 10623 10619 10615 10611 10608 10605 10601 10598 10595 10593 10590 10587 10585 10582 10579 10576 10573 10570 10567 10564 10561 10558 10554 10550 10546 10542 10537 10532 10527 10522 10518 10512 10507 10502 10496 10490 10484 10478 10472 10465 10459 10452 10446 10438 10431 10423 10415 10406 10400 10393 10384 10376 10368 10360 10352 10344 10337 10332 10325 10316 10308 10302 10298 10295 10286 10278 10273 10267 10260 10255 10248 10241 10236 10230 10225 10219 10212 10207 10200 10194
10645 10642 10640 10636 10633 10630 10626 10623 10619 10615 10611 10608 10605 10602 10599 10596 10593 10590 10588 10585 10582 10579 10577 10574 10571 10568 10565 10562 10558 10555 10551 10546 10542 10538 10533 10528 10522 10517 10512 10507 10501 10496 10490 10484 10477 10471 10464 10458 10452 10445 10437 10430 10423 10415 10406 10396 10387 10380 10372 10363 10355 10347 10340 10332 10324 10318 10312 10304 10296 10289 10284 10282 10275 10266 10261 10254 10248 10242 10236 10229 10223 10217 10212 10206 10200 10194 10188 10181
10642 10639 10636 10633 10629 10626 10623 10619 10615 10611 10608 10605 10602 10599 10596 10593 10591 10588 10585 10583 10580 10577 10574 10571 10568 10565 10562 10559 10555 10552 10548 10543 10539 10534 10529 10523 10518 10513 10507 10502 10496 10490 10483 10477 10470 10464 10457 10450 10444 10437 10429 10421 10414 10407 10399 10390 10379 10370 10362 10352 10343 10335 10328 10320 10312 10305 10298 10291 10283 10276 10271 10268 10263 10255 10248 10242 10237 10230 10224 10218 10211 10205 10200 10194 10188 10182 10175 10169
10639 10636 10632 10629 10626 10622 10619 10615 10612 10608 10605 10602 10599 10597 10594 10591 10589 10586 10583 10580 10577 10575 10572 10569 10566 10563 10559 10556 10552 10547 10543 10539 10534 10529 10525 10519 10513 10508 10502 10496 10490 10484 10477 10470 10463 10456 10449 10441 10434 10427 10419 10410 10401 10393 10385 10377 10368 10359 10350 10341 10332 10324 10316 10309 10301 10294 10287 10280 10272 10264 10258 10254 10250 10245 10237 10229 10224 10218 10212 10207 10200 10195 10189 10182 10176 10170 10163 10156
10635 10632 10629 10626 10622 10619 10615 10612 10609 10606 10603 10600 10597 10594 10592 10589 10586 10584 10581 10578 10575 10572 10569 10566 10563 10560 10556 10552 10547 10542 10538 10533 10529 10525 10520 10515 10509 10503 10497 10491 10485 10479 10472 10465 10457 10449 10441 10433 10424 10417 10409 10400 10390 10381 10372 10363 10354 10346 10338 10329 10321 10313 10305 10298 10290 10283 10276 10269 10263 10256 10248 10242 10237 10234 10228 10220 10213 10207 10201 10195 10189 10184 10178 10171 10165 10158 10151 10143
10632 10629 10626 10623 10619 10615 10612 10609 10606 10603 10600 10597 10595 10592 10589 10587 10584 10581 10578 10575 10573 10570 10567 10564 10560 10557 10553 10548 10543 10538 10533 10528 10524 10520 10514 10509 10504 10499 10492 10486 10480 10473 10466 10459 10451 10443 10435 10426 10417 10408 10400 10390 10380 10371 10361 10352 10342 10333 10325 10317 10309 10302 10294 10287 10280 10273 10266 10259 10252 10246 10240 10233 10226 10221 10217 10210 10203 10197 10190 10184 10178 10173 10166 10160 10153 10145 10137 10130
10629 10626 10623 10619 10616 10612 10609 10606 10603 10600 10597 10595 10592 10590 10587 10585 10582 10579 10576 10573 10571 10568 10565 10562 10558 10554 10550 10545 10540 10535 10530 10524 10519 10514 10509 10504 10499 10493 10487 10481 10474 10467 10460 10453 10445 10437 10428 10419 10409 10400 10391 10381 10371 10361 10351 10341 10332 10322 10314 10306 10298 10291 10283 10276 10269 10263 10255 10248 10241 10235 10229 10223 10216 10210 10205 10199 10193 10187 10180 10173 10168 10162 10155 10148 10141 10134 10126 10118
10626 10623 10619 10616 10613 10609 10606 10603 10601 10598 10595 10593 10590 10588 10585 10582 10579 10577 10574 10571 10568 10566 10563 10559 10555 10551 10546 10541 10537 10533 10528 10522 10516 10510 10505 10500 10494 10489 10483 10476 10469 10462 10455 10447 10439 10431 10422 10413 10403 10392 10383 10372 10362 10351 10341 10331 10322 10313 10304 10296 10288 10280 10272 10265 10259 10253 10246 10237 10231 10225 10219 10213 10206 10199 10194 10188 10182 10176 10170 10163 10157 10151 10145 10138 10130 10122 10115 10108
10623 10620 10616 10613 10610 10607 10604 10601 10598 10596 10593 10591 10588 10585 10583 10580 10578 10575 10572 10569 10566 10563 10560 10556 10551 10547 10543 10538 10533 10529 10524 10519 10514 10508 10502 10497 10491 10485 10478 10471 10464 10457 10449 10442 10434 10425 10417 10407 10397 10385 10374 10364 10354 10343 10332 10322 10313 10304 10295 10287 10278 10270 10262 10255 10248 10243 10237 10228 10220 10214 10209 10203 10197 10189 10183 10176 10171 10166 10159 10152 10146 10140 10132 10126 10120 10111 10103 10096
10620 10617 10613 10610 10607 10604 10601 10599 10596 10594 10591 10589 10586 10583 10581 10578 10575 10572 10569 10566 10563 10560 10556 10552 10548 10544 10539 10534 10529 10525 10520 10515 10510 10505 10499 10493 10486 10480 10473 10466 10458 10451 10444 10436 10428 10419 10410 10401 10391 10378 10366 10356 10346 10335 10325 10315 10305 10295 10287 10278 10269 10260 10252 10244 10238 10234 10229 10221 10213 10206 10200 10194 10188 10182 10175 10169 10162 10156 10149 10142 10135 10127 10119 10113 10107 10100 10091 10083
10617 10614 10610 10608 10605 10602 10599 10597 10594 10592 10589 10587 10584 10581 10578 10576 10573 10570 10567 10563 10560 10556 10553 10549 10545 10540 10536 10531 10526 10521 10516 10511 10506 10500 10494 10488 10481 10475 10468 10460 10453 10445 10438 10430 10422 10414 10404 10395 10385 10373 10360 10348 10339 10328 10317 10308 10298 10288 10279 10270 10262 10253 10244 10235 10228 10225 10220 10213 10206 10200 10193 10187 10181 10174 10168 10161 10153 10146 10139 10131 10125 10117 10109 10102 10096 10089 10081 10073